Weather History for Camarillo, CA

Change the Weather History Date:

Saturday, June 29, 2013

  Actual Average Record
Temperature  
Mean Temperature 77 °F 66 °F  
Max Temperature 89 °F 74 °F 89 °F (2013)
Min Temperature 65 °F 57 °F 43 °F (1964)
Degree Days  
Heating Degree Days 0 1  
Month to date heating degree days 0 41  
Since 1 June heating degree days 0 41  
Since 1 July heating degree days 1424 1984  
Cooling Degree Days 12 1  
Month to date cooling degree days 133 17  
Year to date cooling degree days 239 48  
Since 1 June cooling degree days 133 17  
Growing Degree Days 26 (Base 50)    
Moisture  
Dew Point 60 °F    
Average Humidity 57    
Maximum Humidity 73    
Minimum Humidity 40    
Precipitation  
Precipitation 0.00 in 0.00 in 0.05 in (1991)
Month to date precipitation T 0.05  
Year to date precipitation 2.15 10.98  
Since 1 July precipitation 4.86 15.22  
Sea Level Pressure  
Sea Level Pressure 29.83 in    
Wind  
Wind Speed 4 mph (SSW)    
Max Wind Speed 13 mph    
Max Gust Speed 16 mph    
Visibility 10 miles    
Events      
T = Trace of Precipitation, MM = Missing Value Source: NWS Daily Summary

Daily Weather History Graph

Daily Weather History Graph

Search for Another Location

Airport:

Trip Planner

Search our weather history database for the weather conditions in past years. The results will help you decide how hot, cold, wet, or windy it might be!

Date:

Astronomy

Jun. 29, 2013 Rise Set
Actual Time 5:47 AM PDT 8:12 PM PDT
Civil Twilight 5:18 AM PDT 8:41 PM PDT
Nautical Twilight 4:42 AM PDT 9:17 PM PDT
Astronomical Twilight 4:02 AM PDT 9:56 PM PDT
Moon 12:02 AM PDT (6/29) 12:44 PM PDT (6/29)
Length of Visible Light 15h 23m
Length of Day
14h 24m
Waning Gibbous, 54% of the Moon is Illuminated
Jun 29
Waning Gibbous
Jun 29
Last Quarter
Jul 8
New
Jul 15
First Quarter
Jul 22
Full

Hourly Weather History & Observations

Time (PDT) Temp. Heat Index Dew Point Humidity Pressure Visibility Wind Dir Wind Speed Gust Speed Precip Events Conditions
12:55 AM 66.9 °F - 57.9 °F 73% 29.90 in 10.0 mi Calm Calm - N/A   Clear
1:55 AM 66.9 °F - 57.9 °F 73% 29.88 in 10.0 mi Calm Calm - N/A   Clear
2:55 AM 66.0 °F - 57.9 °F 75% 29.87 in 10.0 mi Calm Calm - N/A   Clear
3:55 AM 66.9 °F - 57.9 °F 73% 29.86 in 10.0 mi Calm Calm - N/A   Clear
4:55 AM 66.0 °F - 57.9 °F 75% 29.86 in 9.0 mi Calm Calm - N/A   Clear
5:55 AM 66.0 °F - 57.9 °F 75% 29.86 in 8.0 mi Calm Calm - N/A   Clear
6:55 AM 66.9 °F - 57.9 °F 73% 29.87 in 9.0 mi Calm Calm - N/A   Clear
7:55 AM 71.1 °F - 59.0 °F 66% 29.87 in 10.0 mi Calm Calm - N/A   Clear
8:55 AM 75.0 °F - 61.0 °F 62% 29.88 in 9.0 mi WSW 3.5 mph - N/A   Clear
9:55 AM 80.1 °F 81.1 °F 61.0 °F 52% 29.86 in 10.0 mi Calm Calm - N/A   Clear
10:55 AM 86.0 °F 86.3 °F 62.1 °F 44% 29.86 in 10.0 mi SSW 6.9 mph - N/A   Clear
11:55 AM 86.0 °F 86.1 °F 61.0 °F 43% 29.84 in 10.0 mi SW 8.1 mph - N/A   Clear
12:55 PM 86.0 °F 86.1 °F 61.0 °F 43% 29.84 in 10.0 mi SW 11.5 mph - N/A   Clear
1:55 PM 87.1 °F 87.0 °F 61.0 °F 41% 29.83 in 10.0 mi SW 10.4 mph - N/A   Clear
2:55 PM 87.1 °F 87.0 °F 61.0 °F 41% 29.82 in 10.0 mi SW 9.2 mph - N/A   Clear
3:55 PM 86.0 °F 86.1 °F 61.0 °F 43% 29.80 in 10.0 mi SSW 8.1 mph - N/A   Clear
4:55 PM 82.9 °F 83.3 °F 61.0 °F 47% 29.78 in 10.0 mi SSW 8.1 mph - N/A   Clear
5:55 PM 82.9 °F 83.7 °F 62.1 °F 49% 29.77 in 10.0 mi South 5.8 mph - N/A   Clear
6:55 PM 82.9 °F 83.7 °F 62.1 °F 49% 29.77 in 10.0 mi South 4.6 mph - N/A   Clear
7:55 PM 80.1 °F 81.2 °F 62.1 °F 54% 29.77 in 10.0 mi South 3.5 mph - N/A   Clear
8:55 PM 78.1 °F - 61.0 °F 56% 29.76 in 10.0 mi Calm Calm - N/A   Clear
9:55 PM 78.1 °F - 61.0 °F 56% 29.76 in 10.0 mi Calm Calm - N/A   Clear
10:55 PM 75.0 °F - 61.0 °F 62% 29.76 in 10.0 mi WNW 6.9 mph - N/A   Clear
11:55 PM 72.0 °F - 60.1 °F 66% 29.77 in 10.0 mi SSW 6.9 mph - N/A   Clear